Weather History for West Palm Beach, FL

Change the Weather History Date:

Monday, November 29, 2010

  Actual Average Record
Temperature  
Mean Temperature 76 °F 71 °F  
Max Temperature 83 °F 78 °F 89 °F (1948)
Min Temperature 68 °F 63 °F 40 °F (1966)
Degree Days  
Heating Degree Days 0 1  
Month to date heating degree days 9 8  
Since 1 July heating degree days 9 9  
Cooling Degree Days 11 6  
Month to date cooling degree days 244 237  
Year to date cooling degree days 4012 3858  
Growing Degree Days 25 (Base 50)    
Moisture  
Dew Point 69 °F    
Average Humidity 79    
Maximum Humidity 93    
Minimum Humidity 65    
Precipitation  
Precipitation 0.03 in 0.13 in 1.01 in (2007)
Month to date precipitation 1.23 4.61  
Year to date precipitation 51.94 58.81  
Snow  
Snow 0.00 in - - ()
Month to date snowfall 0.0  
Since 1 July snowfall 0.0  
Since 1 September snowfall 0.0  
Snow Depth 0.00 in    
Sea Level Pressure  
Sea Level Pressure 30.10 in    
Wind  
Wind Speed 8 mph (East)    
Max Wind Speed 18 mph    
Max Gust Speed 23 mph    
Visibility 10 miles    
Events Rain    
T = Trace of Precipitation, MM = Missing Value Source: NWS Daily Summary

Daily Weather History Graph

Daily Weather History Graph

Search for Another Location

Airport:

Trip Planner

Search our weather history database for the weather conditions in past years. The results will help you decide how hot, cold, wet, or windy it might be!

Date:

Astronomy

Nov. 29, 2010 Rise Set
Actual Time 6:50 AM EST 5:27 PM EST
Civil Twilight 6:25 AM EST 5:52 PM EST
Nautical Twilight 5:56 AM EST 6:20 PM EST
Astronomical Twilight 5:28 AM EST 6:48 PM EST
Moon 12:29 AM EST (11/29) 12:57 PM EST (11/29)
Length of Visible Light 11h 26m
Length of Day
10h 36m
Last Quarter, 40% of the Moon is Illuminated
Nov 29
Last Quarter
Dec 5
New
Dec 13
First Quarter
Dec 21
Full
Dec 27
Last Quarter

Hourly Weather History & Observations

Time (EST) Temp. Heat Index Dew Point Humidity Pressure Visibility Wind Dir Wind Speed Gust Speed Precip Events Conditions
12:53 AM 75.0 °F - 69.1 °F 82% 30.08 in 10.0 mi ESE 5.8 mph - N/A   Scattered Clouds
1:53 AM 73.0 °F - 68.0 °F 84% 30.08 in 10.0 mi SE 3.5 mph - N/A   Scattered Clouds
2:53 AM 71.1 °F - 66.9 °F 87% 30.07 in 10.0 mi Calm Calm - N/A   Scattered Clouds
3:53 AM 69.1 °F - 66.9 °F 93% 30.07 in 10.0 mi Calm Calm - N/A   Partly Cloudy
4:53 AM 70.0 °F - 66.9 °F 90% 30.07 in 10.0 mi Calm Calm - N/A   Mostly Cloudy
5:53 AM 68.0 °F - 66.0 °F 93% 30.08 in 10.0 mi Calm Calm - N/A   Partly Cloudy
6:53 AM 70.0 °F - 66.9 °F 90% 30.10 in 10.0 mi Calm Calm - N/A   Mostly Cloudy
7:53 AM 73.0 °F - 69.1 °F 87% 30.12 in 10.0 mi East 4.6 mph - N/A   Mostly Cloudy
8:53 AM 77.0 °F - 70.0 °F 79% 30.14 in 10.0 mi East 9.2 mph - N/A   Mostly Cloudy
9:10 AM 77.0 °F - 69.8 °F 78% 30.14 in 10.0 mi East 10.4 mph - N/A   Mostly Cloudy
9:53 AM 75.9 °F - 71.1 °F 85% 30.15 in 8.0 mi ENE 10.4 mph - 0.00 in Rain Light Rain
10:02 AM 75.2 °F - 71.6 °F 89% 30.16 in 10.0 mi East 12.7 mph - 0.00 in   Mostly Cloudy
10:53 AM 79.0 °F - 69.1 °F 72% 30.16 in 10.0 mi East 15.0 mph - 0.00 in   Mostly Cloudy
11:53 AM 81.0 °F 84.1 °F 69.1 °F 67% 30.13 in 10.0 mi East 11.5 mph - N/A   Mostly Cloudy
12:53 PM 82.0 °F 85.5 °F 69.1 °F 65% 30.10 in 10.0 mi ESE 11.5 mph - N/A   Mostly Cloudy
1:53 PM 75.9 °F - 68.0 °F 76% 30.09 in 9.0 mi ESE 17.3 mph - 0.00 in Rain Light Rain
2:53 PM 78.1 °F - 64.9 °F 64% 30.08 in 10.0 mi East 6.9 mph - 0.00 in   Mostly Cloudy
3:53 PM 79.0 °F - 68.0 °F 69% 30.08 in 10.0 mi East 6.9 mph - N/A   Mostly Cloudy
4:53 PM 79.0 °F - 66.9 °F 66% 30.08 in 10.0 mi East 8.1 mph - N/A   Mostly Cloudy
5:53 PM 77.0 °F - 68.0 °F 74% 30.09 in 10.0 mi ENE 11.5 mph - N/A   Mostly Cloudy
6:53 PM 77.0 °F - 72.0 °F 84% 30.10 in 10.0 mi East 12.7 mph - 0.03 in   Scattered Clouds
7:53 PM 77.0 °F - 69.1 °F 76% 30.10 in 10.0 mi East 12.7 mph - N/A   Scattered Clouds
8:53 PM 77.0 °F - 68.0 °F 74% 30.11 in 10.0 mi ESE 11.5 mph - N/A   Scattered Clouds
9:53 PM 77.0 °F - 70.0 °F 79% 30.11 in 10.0 mi ESE 12.7 mph - N/A   Scattered Clouds
10:53 PM 77.0 °F - 70.0 °F 79% 30.11 in 10.0 mi ESE 16.1 mph - N/A   Scattered Clouds
11:53 PM 77.0 °F - 70.0 °F 79% 30.09 in 10.0 mi East 15.0 mph - N/A   Scattered Clouds